Charleston, SC

11:01 AM EDT on March 24, 2017 (GMT -0400)
Charleston Air Force Base-International

Weather History for KCHS - January, 2013

Change the Weather History Date:

Sunday, January 13, 2013

  Actual Average Record
Temperature  
Mean Temperature 66 °F 48 °F  
Max Temperature 77 °F 59 °F 80 °F (2017)
Min Temperature 54 °F 37 °F 13 °F (1981)
Degree Days  
Heating Degree Days 0 17  
Month to date heating degree days 116 221  
Since 1 July heating degree days 814 959  
Cooling Degree Days 1 0  
Month to date cooling degree days 7 0  
Year to date cooling degree days 7 0  
Growing Degree Days 15 (Base 50)    
Moisture  
Dew Point 58 °F    
Average Humidity 77    
Maximum Humidity 100    
Minimum Humidity 54    
Precipitation  
Precipitation 0.00 in 0.12 in 1.92 in (1958)
Month to date precipitation 0.14 1.52  
Year to date precipitation 0.14 1.52  
Snow  
Snow 0.00 in 0.00 in - ()
Month to date snowfall 0.0  
Since 1 July snowfall 0.0 0.4  
Snow Depth 0.00 in    
Sea Level Pressure  
Sea Level Pressure 30.14 in    
Wind  
Wind Speed 5 mph (SSW)    
Max Wind Speed 13 mph    
Max Gust Speed 16 mph    
Visibility 6 miles    
Events Fog    
T = Trace of Precipitation, MM = Missing Value Source: NWS Daily Summary

Daily Weather History Graph

Daily Weather History Graph

Search for Another Location

Airport or City:

Trip Planner

Search our weather history database for the weather conditions in past years. The results will help you decide how hot, cold, wet, or windy it might be!

Date:

Astronomy

Jan. 13, 2013 Rise Set
Actual Time 7:23 AM EST 5:34 PM EST
Civil Twilight 6:56 AM EST 6:01 PM EST
Nautical Twilight 6:26 AM EST 6:32 PM EST
Astronomical Twilight 5:56 AM EST 7:01 PM EST
Moon 8:29 AM EST (1/13) 8:01 PM EST (1/13)
Length of Visible Light 11h 05m
Length of Day
10h 11m
Waxing Crescent, 5% of the Moon is Illuminated
Jan 13
Waxing Crescent
Jan 18
First Quarter
Jan 26
Full
Feb 3
Last Quarter
Feb 10
New

Hourly Weather History & Observations

Time (EST) Temp. Dew Point Humidity Pressure Visibility Wind Dir Wind Speed Gust Speed Precip Events Conditions
12:56 AM 60.1 °F 59.0 °F 96% 30.13 in 7.0 mi South 3.5 mph - N/A   Clear
1:56 AM 57.9 °F 57.9 °F 100% 30.14 in 7.0 mi SSW 5.8 mph - N/A   Clear
2:56 AM 57.9 °F 57.9 °F 100% 30.14 in 9.0 mi SSW 5.8 mph - N/A   Clear
3:56 AM 60.1 °F 59.0 °F 96% 30.12 in 6.0 mi Calm Calm - N/A Fog Clear
4:48 AM 59.0 °F 57.2 °F 94% 30.11 in 0.8 mi Calm Calm - N/A Fog Clear
4:54 AM 57.2 °F 57.2 °F 100% 30.11 in 0.8 mi Calm Calm - N/A   Mist
4:56 AM 57.0 °F 57.0 °F 100% 30.11 in 0.8 mi Calm Calm - N/A   Mist
5:12 AM 55.4 °F 55.4 °F 100% 30.11 in 4.0 mi Calm Calm - N/A Fog Clear
5:56 AM 55.9 °F 55.0 °F 97% 30.12 in 3.0 mi Calm Calm - N/A Fog Clear
6:32 AM 55.4 °F 53.6 °F 94% 30.14 in 0.8 mi Calm Calm - N/A Fog Mist
6:46 AM 53.6 °F 53.6 °F 100% 30.14 in 0.5 mi Calm Calm - N/A Fog Fog
6:56 AM 55.0 °F 54.0 °F 96% 30.14 in 0.5 mi Calm Calm - N/A Fog Fog
7:34 AM 53.6 °F 53.6 °F 100% 30.15 in 0.2 mi Calm Calm - N/A Fog Fog
7:56 AM 54.0 °F 54.0 °F 100% 30.17 in 0.2 mi Calm Calm - N/A Fog Fog
8:56 AM 61.0 °F 60.1 °F 97% 30.19 in 0.2 mi Calm Calm - N/A Fog Fog
9:15 AM 62.6 °F 62.6 °F 100% 30.19 in 2.0 mi Calm Calm - N/A   Scattered Clouds
9:23 AM 62.6 °F 62.6 °F 100% 30.19 in 8.0 mi Calm Calm - N/A   Scattered Clouds
9:56 AM 68.0 °F 62.1 °F 81% 30.20 in 10.0 mi SSW 4.6 mph - N/A   Scattered Clouds
10:56 AM 73.0 °F 61.0 °F 66% 30.18 in 10.0 mi SSW 9.2 mph - N/A   Mostly Cloudy
11:56 AM 75.0 °F 60.1 °F 60% 30.16 in 10.0 mi SSW 12.7 mph - N/A   Mostly Cloudy
12:56 PM 75.0 °F 59.0 °F 57% 30.12 in 10.0 mi SSW 9.2 mph - N/A   Mostly Cloudy
1:56 PM 75.9 °F 57.9 °F 54% 30.09 in 10.0 mi SSW 8.1 mph - N/A   Mostly Cloudy
2:56 PM 75.0 °F 57.9 °F 55% 30.12 in 10.0 mi South 10.4 mph - N/A   Mostly Cloudy
3:56 PM 73.9 °F 57.9 °F 57% 30.14 in 10.0 mi SSW 10.4 mph - N/A   Mostly Cloudy
4:56 PM 71.1 °F 57.9 °F 63% 30.14 in 10.0 mi South 9.2 mph - N/A   Mostly Cloudy
5:56 PM 66.0 °F 57.9 °F 75% 30.13 in 10.0 mi South 5.8 mph - N/A   Mostly Cloudy
6:56 PM 64.0 °F 60.1 °F 87% 30.14 in 10.0 mi South 5.8 mph - N/A   Mostly Cloudy
7:56 PM 61.0 °F 59.0 °F 93% 30.14 in 10.0 mi South 4.6 mph - N/A   Mostly Cloudy
8:56 PM 61.0 °F 60.1 °F 97% 30.13 in 10.0 mi South 3.5 mph - N/A   Scattered Clouds
9:56 PM 59.0 °F 57.9 °F 96% 30.15 in 6.0 mi South 3.5 mph - N/A   Scattered Clouds
10:56 PM 60.1 °F 59.0 °F 96% 30.16 in 6.0 mi SSW 3.5 mph - N/A   Clear
11:56 PM 59.0 °F 57.9 °F 96% 30.16 in 7.0 mi South 6.9 mph - N/A   Scattered Clouds